Location: Ravensburg
(47.7866°N, 9.6124°E)
Time: 20:00:49
(UTC+01:00)

ISS - Pass Details

Date: 16 November 2025
Orbit: 416 x 421 km, 51.6° (Epoch: 05 December)

Event Time Altitude Azimuth Distance (km) Brightness Sun altitude
Rises 17:19:23 0° 212° (SSW) 2,358 1.0 -6.3°
Reaches altitude 10° 17:21:41 10° 199° (SSW) 1,496 -0.3 -6.7°
Maximum altitude 17:24:30 25° 141° (SE) 880 -2.3 -7.2°
Drops below altitude 10° 17:27:21 10° 84° (E) 1,500 -1.6 -7.6°
Enters shadow 17:27:26 10° 83° (E) 1,532 -1.5 -7.6°
